Change the Weather History Date:

Monday, September 23, 2013

  Actual Average Record
Temperature  
Mean Temperature 59 °F 65 °F  
Max Temperature 67 °F 74 °F 94 °F (1970)
Min Temperature 51 °F 57 °F 40 °F (1947)
Degree Days  
Heating Degree Days 6 2  
Month to date heating degree days 32 19  
Since 1 July heating degree days 32 20  
Cooling Degree Days 0 3  
Month to date cooling degree days 119 125  
Year to date cooling degree days 1290 1159  
Growing Degree Days 8 (Base 50)    
Moisture  
Dew Point 40 °F    
Average Humidity 52    
Maximum Humidity 66    
Minimum Humidity 37    
Precipitation  
Precipitation 0.00 in 0.13 in 2.20 in (1975)
Month to date precipitation 1.54 2.85  
Year to date precipitation 34.84 34.22  
Snow  
Snow 0.00 in 0.00 in 0.00 in (2002)
Month to date snowfall 0.0 0.0  
Since 1 July snowfall 0.0 0.0  
Snow Depth 0.00 in    
Sea Level Pressure  
Sea Level Pressure 29.99 in    
Wind  
Wind Speed 11 mph (NW)    
Max Wind Speed 18 mph    
Max Gust Speed 25 mph    
Visibility 10 miles    
Events      
T = Trace of Precipitation, MM = Missing Value Source: NWS Daily Summary

Daily Weather History Graph

Daily Weather History Graph

Search for Another Location

Airport or City:

Trip Planner

Search our weather history database for the weather conditions in past years. The results will help you decide how hot, cold, wet, or windy it might be!

Date:

Astronomy

Sep. 23, 2013 Rise Set
Actual Time 6:45 AM EDT 6:51 PM EDT
Civil Twilight 6:18 AM EDT 7:19 PM EDT
Nautical Twilight 5:46 AM EDT 7:50 PM EDT
Astronomical Twilight 5:13 AM EDT 8:23 PM EDT
Moon 9:20 PM EDT (9/23) 11:03 AM EDT (9/23)
Length of Visible Light 13h 00m
Length of Day
12h 06m
Waning Gibbous, 81% of the Moon is Illuminated
Sep 23
Waning Gibbous
Sep 26
Last Quarter
Oct 4
New
Oct 11
First Quarter
Oct 18
Full

Hourly Weather History & Observations

Time (EDT) Temp. Dew Point Humidity Pressure Visibility Wind Dir Wind Speed Gust Speed Precip Events Conditions
12:51 AM 55.0 °F 39.0 °F 55% 29.93 in 10.0 mi NNW 12.7 mph - N/A   Partly Cloudy
1:51 AM 54.0 °F 39.0 °F 57% 29.94 in 10.0 mi NNW 10.4 mph - N/A   Partly Cloudy
2:51 AM 53.1 °F 39.9 °F 61% 29.94 in 10.0 mi NW 5.8 mph - N/A   Partly Cloudy
3:51 AM 53.1 °F 39.9 °F 61% 29.95 in 10.0 mi NW 6.9 mph - N/A   Partly Cloudy
4:51 AM 52.0 °F 39.9 °F 63% 29.96 in 10.0 mi NW 9.2 mph - N/A   Partly Cloudy
5:51 AM 52.0 °F 39.9 °F 63% 29.98 in 10.0 mi NNW 9.2 mph - N/A   Partly Cloudy
6:51 AM 51.1 °F 39.0 °F 63% 30.00 in 10.0 mi NNW 12.7 mph - N/A   Partly Cloudy
7:51 AM 53.1 °F 39.0 °F 59% 30.02 in 10.0 mi NNW 11.5 mph - N/A   Partly Cloudy
8:51 AM 55.0 °F 37.9 °F 53% 30.02 in 10.0 mi NNW 12.7 mph - N/A   Partly Cloudy
9:51 AM 57.9 °F 39.0 °F 49% 30.02 in 10.0 mi NNW 10.4 mph - N/A   Partly Cloudy
10:51 AM 60.1 °F 37.9 °F 44% 30.01 in 10.0 mi NW 17.3 mph 21.9 mph N/A   Partly Cloudy
11:51 AM 62.1 °F 39.9 °F 44% 30.01 in 10.0 mi NW 13.8 mph - N/A   Partly Cloudy
12:51 PM 64.0 °F 42.1 °F 45% 30.00 in 10.0 mi WNW 12.7 mph 18.4 mph N/A   Partly Cloudy
1:51 PM 64.9 °F 41.0 °F 42% 29.99 in 10.0 mi NW 15.0 mph 20.7 mph N/A   Partly Cloudy
2:51 PM 66.0 °F 41.0 °F 40% 29.97 in 10.0 mi NNW 11.5 mph 18.4 mph N/A   Partly Cloudy
3:51 PM 66.0 °F 39.9 °F 38% 29.97 in 10.0 mi NW 12.7 mph - N/A   Partly Cloudy
4:51 PM 66.0 °F 42.1 °F 42% 29.97 in 10.0 mi West 9.2 mph 25.3 mph N/A   Partly Cloudy
5:51 PM 64.0 °F 42.1 °F 45% 29.99 in 10.0 mi NNW 11.5 mph 18.4 mph N/A   Partly Cloudy
6:51 PM 63.0 °F 42.1 °F 46% 30.00 in 10.0 mi WNW 9.2 mph - N/A   Partly Cloudy
7:51 PM 61.0 °F 42.1 °F 50% 30.01 in 10.0 mi NW 9.2 mph 19.6 mph N/A   Clear
8:51 PM 57.9 °F 42.1 °F 56% 30.03 in 10.0 mi NW 15.0 mph - N/A   Clear
9:51 PM 55.9 °F 42.1 °F 60% 30.04 in 10.0 mi NW 10.4 mph - N/A   Clear
10:51 PM 55.0 °F 42.1 °F 62% 30.06 in 10.0 mi NNW 9.2 mph - N/A   Clear
11:51 PM 53.1 °F 42.1 °F 66% 30.05 in 10.0 mi North 8.1 mph - N/A   Clear